Altoona, PA

5:59 AM EST on November 22, 2019 (GMT -0500)
Altoona-Blair County

Weather History for KAOO - September, 2019

Change the Weather History Date:

Wednesday, September 11, 2019

  Actual Average Record
Temperature  
Mean Temperature 77 °F 64 °F  
Max Temperature 91 °F 74 °F 91 °F (2019)
Min Temperature 62 °F 53 °F 39 °F (1967)
Degree Days  
Heating Degree Days 0 3  
Month to date heating degree days 6 26  
Since 1 July heating degree days 15 58  
Cooling Degree Days 12 2  
Month to date cooling degree days 37 27  
Year to date cooling degree days 682 506  
Growing Degree Days 26 (Base 50)    
Moisture  
Dew Point 65 °F    
Average Humidity 71    
Maximum Humidity 100    
Minimum Humidity 41    
Precipitation  
Precipitation 0.00 in 0.12 in 1.63 in (1960)
Month to date precipitation 0.55 1.28  
Year to date precipitation 30.24 25.21  
Sea Level Pressure  
Sea Level Pressure 30.16 in    
Wind  
Wind Speed 5 mph (WSW)    
Max Wind Speed 16 mph    
Max Gust Speed 23 mph    
Visibility 9 miles    
Events Rain , Thunderstorm    
T = Trace of Precipitation, MM = Missing Value Source: NWS Daily Summary

Daily Weather History Graph

Daily Weather History Graph

Search for Another Location

Airport or City:

Astronomy

Sep. 11, 2019 Rise Set
Actual Time 6:50 AM EDT 7:29 PM EDT
Civil Twilight 6:22 AM EDT 7:56 PM EDT
Nautical Twilight 5:50 AM EDT 8:28 PM EDT
Astronomical Twilight 5:16 AM EDT 9:02 PM EDT
Moon 6:40 PM EDT (9/11) 4:10 AM EDT (9/11)
Length of Visible Light 13h 33m
Length of Day
12h 39m
Waxing Gibbous, 94% of the Moon is Illuminated
Sep 11
Waxing Gibbous
Sep 14
Full
Sep 21
Last Quarter
Sep 28
New
Oct 5
First Quarter

Hourly Weather History & Observations

Time (EDT) Temp. Heat Index Dew Point Humidity Pressure Visibility Wind Dir Wind Speed Gust Speed Precip Events Conditions
12:53 AM 68.0 °F - 63.0 °F 84% 30.22 in 10.0 mi South 5.8 mph - N/A   Clear
1:53 AM - - - N/A% 30.24 in - North - - N/A   Unknown
2:53 AM 66.0 °F - 63.0 °F 90% 30.20 in 10.0 mi Calm Calm - N/A   Clear
3:53 AM 64.0 °F - 62.1 °F 93% 30.20 in 10.0 mi Calm Calm - N/A   Clear
4:53 AM 62.1 °F - 60.1 °F 93% 30.19 in 6.0 mi Calm Calm - N/A   Clear
5:53 AM 64.9 °F - 63.0 °F 93% 30.20 in 6.0 mi SSE 3.5 mph - N/A   Clear
6:53 AM 63.0 °F - 62.1 °F 97% 30.22 in 4.0 mi Calm Calm - N/A   Clear
7:53 AM 68.0 °F - 64.9 °F 90% 30.23 in 5.0 mi SSW 4.6 mph - N/A   Clear
8:53 AM 73.9 °F - 66.9 °F 79% 30.23 in 9.0 mi SSW 4.6 mph - N/A   Clear
9:53 AM 79.0 °F - 66.0 °F 64% 30.22 in 10.0 mi SW 5.8 mph - N/A   Clear
10:53 AM 82.9 °F 85.0 °F 66.0 °F 56% 30.20 in 10.0 mi SW 5.8 mph - N/A   Clear
11:53 AM 84.9 °F 87.1 °F 66.0 °F 53% 30.18 in 10.0 mi Variable 4.6 mph - N/A   Clear
12:53 PM 89.1 °F 91.3 °F 66.0 °F 46% 30.16 in 10.0 mi West 12.7 mph 19.6 mph N/A   Clear
1:53 PM 88.0 °F 89.3 °F 64.0 °F 45% 30.18 in 10.0 mi WNW 13.8 mph - N/A   Mostly Cloudy
2:53 PM 90.0 °F 91.3 °F 64.0 °F 42% 30.12 in 10.0 mi NW 13.8 mph - N/A   Mostly Cloudy
3:53 PM 90.0 °F 90.6 °F 63.0 °F 40% 30.10 in 10.0 mi West 11.5 mph 20.7 mph N/A   Clear
4:53 PM 89.1 °F 91.0 °F 64.9 °F 45% 30.09 in 10.0 mi WNW 8.1 mph - N/A   Clear
5:53 PM 84.9 °F 86.6 °F 64.9 °F 51% 30.09 in 10.0 mi West 9.2 mph - N/A   Clear
6:53 PM 84.0 °F 86.3 °F 66.0 °F 55% 30.11 in 5.0 mi WSW 3.5 mph - N/A   Haze
7:53 PM 78.1 °F - 66.9 °F 68% 30.10 in 10.0 mi Calm Calm - N/A   Clear
8:00 PM 77.0 °F - 66.9 °F 71% 30.13 in 10.0 mi Calm Calm - N/A Thunderstorm Thunderstorm
8:42 PM 69.1 °F - 64.9 °F 87% 30.14 in 10.0 mi East 4.6 mph - 0.01 in Thunderstorm Clear
8:53 PM 70.0 °F - 64.9 °F 84% 30.12 in 10.0 mi Calm Calm - 0.01 in Thunderstorm Clear
9:06 PM 69.1 °F - 64.9 °F 87% 30.16 in 10.0 mi SSW 3.5 mph - 0.00 in Rain , Thunderstorm Light Thunderstorms and Rain
9:36 PM 70.0 °F - 64.9 °F 84% 30.15 in 10.0 mi East 4.6 mph - 0.01 in Rain , Thunderstorm Light Rain
9:53 PM 69.1 °F - 66.0 °F 90% 30.12 in 9.0 mi Calm Calm - 0.01 in   Partly Cloudy
10:53 PM 69.1 °F - 66.0 °F 90% 30.10 in 9.0 mi Calm Calm - N/A   Scattered Clouds
11:53 PM 70.0 °F - 66.0 °F 87% 30.11 in 9.0 mi NNE 8.1 mph - N/A   Scattered Clouds